Location: Zagreb
(45.8000°N, 16.0000°E)
Time: 22:37:23
(UTC+01:00)

Vanguard 2 Rocket - Pass Details

Date: 03 February 2020
Orbit: 553 x 3327 km, 32.9° (Epoch: 24 February)

Event Time Altitude Azimuth Distance (km) Brightness Sun altitude
Exits shadow 04:17:41 10° 147° (SSE) 1,902 8.8 -31.3°
Drops below altitude 10° 04:17:48 10° 145° (SE) 1,931 8.8 -31.3°
Sets 04:21:15 0° 121° (ESE) 3,070 10.3 -30.7°
